Погода в Красномайском

Россия / Новосибирская область     54°59′42″N   82°31′11″E
темп.,
°C
ветер,
м/с
пор.,
м/с
влажн.,
%
обл.,
%
осадки,
мм/ч
давл.,
гПа
погр.,
м
19 сентября, вс
вс1901:00+9юз4963100 0.0 1010514
04:00+8ююз4960100 0.0 1009439
07:00+6ююз51267100 0.0 1008369
10:00+9ююз61359100 0.0 1007718
13:00+13ююз81243100 0.0 10041915
16:00+10з6106899 0.1 10051119
19:00+9з37706 0.1 1005249
22:00+9з61072100 0.1 1006664
20 сентября, пн
пн2001:00+5юз378488 0.1 1007164
04:00+4юз511795 0.0 1007315
07:00+3юз5128099 0.0 1009458
10:00+5зюз91274100 0.0 10101045
13:00+6зюз81165100 0.2 10111446
16:00+6зюз81171100 0.6 10121283
19:00+4зюз61087100 1.3 1012969
22:00+3зюз51089100 0.4 1012600
21 сентября, вт
вт2101:00+3зюз698352 0.4 1012714
04:000з499553 0.0 1013343
07:00+2зюз5984100 0.0 1014470
10:00+2зюз61296100 0.2 1015505
13:00+5з7980100 0.4 1016877
16:00+6зсз6866100 0.2 10161364
19:00+5з5876100 0.5 1017469
22:00+2зсз4892100 0.1 1019347
22 сентября, ср
ср2201:00+1з479449 0.3 1019261
04:00−1з379177 0.0 1020204
07:00−1зюз388873 0.0 1020218
10:00+3зюз4780100 0.0 1020513
13:00+4зюз5673100 0.2 10201001
16:00+4зюз5673100 0.3 10201013
19:00+3зюз468080 0.6 1020500
22:00+1зюз379291 0.0 1020235
23 сентября, чт
чт2301:00+2зюз3690100 0.0 1020415
04:00+1юз3696100 0.0 1020331
07:00+2юз4799100 0.3 1020336
10:00+2юз4695100 0.3 1021418
13:00+4з4580100 0.5 1021791
16:00+3з3492100 0.3 1021517
19:00+3зсз2292100 0.4 1022284
22:00+2с2497100 0.2 1022350